Regional Weather Roundup
Issued by NWS

Home | Current Version | Previous Version | Text Only | Print | Product List | Glossary On
Versions: 1 2 3 4 5 6 7 8 9 10 11 12 13 14 15 16 17 18 19 20 21 22 23 24 25 26 27 28 29 30 31 32 33 34 35 36 37 38 39 40 41 42 43 44 45 46 47 48 49 50
000
ASUS43 KDTX 291510
RWRMI
MICHIGAN HOURLY REGIONAL WEATHER ROUNDUP
NATIONAL WEATHER SERVICE DETROIT/PONTIAC MI
1100 AM EDT FRI AUG 29 2014

NOTE: "FAIR" INDICATES FEW OR NO CLOUDS BELOW 12,000 FEET WITH NO
SIGNIFICANT WEATHER AND/OR OBSTRUCTION TO VISIBILITY.

MIZ047>049-052>055-059>063-066>070-074>076-081>083-291600-
SOUTHEAST LOWER MICHIGAN

CITY           SKY/WX    TMP DP  RH WIND       PRES   REMARKS
ADRIAN         CLOUDY    65  56  72 S8        30.13F
ALMA           CLOUDY    68  56  66 S10       30.10S
ANN ARBOR      PTSUNNY   67  53  61 S8        30.13F
BAD AXE        PTSUNNY   67  59  75 S12       30.13F
CARO           CLOUDY    67  58  73 SE9       30.11F
DETROIT CITY   CLOUDY    72  54  53 S13       30.14F
DETROIT        CLOUDY    69  56  62 SE13      30.14F
FLINT          PTSUNNY   70  56  61 S13G20    30.12S
GROSSE ILE     PTSUNNY   70  57  64 S10       30.13F
HILLSDALE      CLOUDY    65  56  73 S5        30.12S
HOWELL         CLOUDY    65  56  72 SE13      30.12F

CITY           SKY/WX    TMP DP  RH WIND       PRES   REMARKS
JACKSON        CLOUDY    67  56  67 SE8       30.11S
LAMBERTVILLE   MOSUNNY   68  55  64 SE3       30.13F
LANSING        CLOUDY    66  50  56 SE13      30.10F
LAPEER         FAIR      69  55  60 S12G20    30.13F
MASON          CLOUDY    65  52  64 SE7       30.11S
MONROE         MOSUNNY   70  57  64 SE7       30.12F
MT. CLEMENS    PTSUNNY   69  55  61 S14       30.13F
PONTIAC        CLOUDY    67  54  63 SE17      30.13F
PORT HOPE        N/A     67  55  65 VRB5      30.11F
PORT HURON     PTSUNNY   68  61  77 S6        30.15S
TRI CITIES     PTSUNNY   69  58  67 S8        30.11F
TROY           CLOUDY    69  54  58 SE7       30.15F
SAGINAW HB     CLOUDY    70  59  68 S12       30.10F
$$
MIZ043>046-050>051-056>058-064>065-071>073-077>080-291600-
SOUTHWEST LOWER MICHIGAN

CITY           SKY/WX    TMP DP  RH WIND       PRES   REMARKS
BATTLE CREEK   CLOUDY    66  56  70 SE9       30.09S
BENTON HARBOR  CLOUDY    69  61  75 SE8       30.03F
BIG RAPIDS     CLOUDY    63  60  91 S7        30.06S
COLDWATER      CLOUDY    66  59  76 SE6       30.10S
FREMONT        PTSUNNY   65  57  75 SE8       30.04S
HOLLAND        CLOUDY    67  61  81 SE9       30.04F
GRAND RAPIDS   CLOUDY    66  58  75 SE9       30.07S
IONIA          CLOUDY    66  53  63 SE9       30.08S
KALAMAZOO      CLOUDY    67  57  70 S9        30.07F
LUDINGTON      PTSUNNY   67  62  83 S10       30.00F
MARSHALL       CLOUDY    65  56  70 SE7G16    30.09F
MOUNT PLEASANT CLOUDY    66  57  73 SE7       30.08F
MUSKEGON       CLOUDY    67  59  75 SE14      30.02F
SOUTH HAVEN    CLOUDY    68  62  81 SE6       30.03F
$$
MIZ016>042-291600-
NORTHERN LOWER MICHIGAN

CITY           SKY/WX    TMP DP  RH WIND       PRES   REMARKS
ALPENA         LGT RAIN  62  58  86 S7        30.11S
BEAVER ISLAND  RAIN      60  59  96 SE10      30.03F
CADILLAC       CLOUDY    63  57  82 S8G17     30.05S
CHARLEVOIX     RAIN      60  60  99 SE9       30.06F
FRANKFORT      RAIN      63  59  87 SE5       30.00F
GAYLORD        RAIN      57  56  96 S12       30.08F FOG
GRAYLING       LGT RAIN  59  58  97 SE7       30.08F
HARBOR SPRINGS RAIN      59  57  92 CALM      30.06F
HOUGHTON LAKE  CLOUDY    60  56  86 SE12      30.08F
MANISTEE       CLOUDY    64  57  77 SE10      30.01F
OSCODA         CLOUDY    63  58  83 S5        30.10F
PELLSTON       LGT RAIN  58  57  97 SE8       30.07S FOG
TRAVERSE CITY  RAIN      61  58  90 SE5       30.02S FOG
$$
MIZ007>008-015-291600-
EASTERN UPPER MICHIGAN

CITY           SKY/WX    TMP DP  RH WIND       PRES   REMARKS
KINROSS        CLOUDY    61  57  88 SE9       30.07S
MACKINAC ISLAN CLOUDY    58  57  95 S10G16    30.07R
NEWBERRY       CLOUDY    59  57  94 S6G17     30.02F FOG
S. S. MARIE    CLOUDY    62  55  77 SE6       30.07S
MUNISING         N/A     64  57  78 S10G17    29.96F
$$
MIZ004>006-011>014-085-291600-
CENTRAL UPPER MICHIGAN

CITY           SKY/WX    TMP DP  RH WIND       PRES   REMARKS
MANISTIQUE     LGT RAIN  60  60  97 SE14      29.99F
ESCANABA       CLOUDY    63  59  88 SE10      29.96F
MENOMINEE      CLOUDY    64  63  94 S6        29.93F
SAWYER-GWINN   CLOUDY    59  57  94 S14G20    29.96F
$$
MIZ001>003-009>011-084-291600-
WESTERN UPPER MICHIGAN

CITY           SKY/WX    TMP DP  RH WIND       PRES   REMARKS
IRON MOUNTAIN  CLOUDY    60  59  96 SE10      29.93F FOG
HOUGHTON       CLOUDY    60  56  86 E9        29.90F
COPPER HARBOR    N/A     62  56  80 VRB6      29.90F
$$

ABBREVIATIONS USED IN REMARKS
   TC - TEMPERATURE IN CELSIUS
  WCI - WIND CHILL INDEX
   HX - HEAT INDEX
  VSB - VISIBILITY



USA.gov is the U.S. government's official web portal to all federal, state and local government web resources and services.